Location: Sungai Bunut
(2.6333°N, 113.7333°E)
Time: 10:07:28
(UTC+00:00)

A-11 Canister half - Pass Details

Date: 06 December 2023
Orbit: 1526 x 1682 km, 47.3° (Epoch: 22 February)

Event Time Altitude Azimuth Distance (km) Brightness Sun altitude
Exits shadow 18:32:20 24° 81° (E) 2,786 10.5 -51.5°
Drops below altitude 10° 18:36:42 10° 105° (ESE) 3,719 11.4 -50.5°
Sets 18:40:14 0° 115° (ESE) 4,689 12.2 -49.8°
